Back to catalog

INTELSAT 3-F6

AliveCommunicationsGEO
NORAD 4297·PAYLOAD· XX

Launched Jan 15, 1970 from Cape Canaveral Space Force Station

Loading…

TLE

FreshSource: Space-Track

Epoch: Sep 14, 2026, 12:30 UTC

1 04297U 70003A   26257.52111547 -.00000059  00000-0  00000-0 0  9995
2 04297   1.3131  87.3909 0009103 261.5650  26.0824  0.99159486177746

Track INTELSAT 3-F6 in real time with AllMySat

Download on the App Store